Find Starlink 35167

NORAD ID: 65736 Int'l Des: 2025-216 Owner: SPXS Country: US Constellation: starlink operational
LEOCIRCULAR

实时位置

正在加载3D地球...

关于 Starlink 35167

正在加载描述...

即将过境

Passes for default location (London). Set your location on the main map for personalized predictions.

高度历史

Loading altitude history...

两行轨道根数

1 65736U 25216C 26107.15555986 .00008171 00000-0 28764-3 0 9990
2 65736 53.1567 154.1690 0001057 84.8933 275.2188 15.30205421 32438
Epoch: Apr 17, 2026 • Age: 14 hours

当前状态

高度 475.1 km
速度 7.63 km/s
星下点 9.83°N, 44.55°E
发射日期 Sep 25, 2025
运行时间 0.5 years
类型 internet

技术详情

分类 Payload
质量 575.00 kg
干质量 530.00 kg
总质量 575.00 kg
长度 0.30 m
直径 4.10 m
跨度 29.00 m
形状 Box + pan
制造商 SPXS
平台类型 Starlink V2MO
阶段状态 In Orbit
所有者/国家 SPXS/US

Most Searched